map of XCR home
Great Circle Mapper logo
XCR - Airport
Location
City:  Chalons-sur-Marne, France
Name:Vatry International Airport
ICAO / IATA:LFOK / XCR

Details
Type:Airport (Aerodrome, Airfield)
Use:Public/Civil, International (customs port of entry)
Latitude:4846'24"N (48.773333)
Longitude:412'22"E (4.206111)
Elevation:587 ft (179 m)
Runways:1
Longest:12664 × 148 ft (3860 × 45 m), paved

Time
Time Zone:UTC+1 (DST+2)
Local Time:

Weather
METAR:LFOK 201330Z AUTO 23007KT 190V270 9999 FEW035 25/16 Q1015
TAF:LFOK 201100Z 2012/2112 24005KT 9999 SCT040
TEMPO 2012/2102 2000 SHRA BKN040CB PROB40 2012/2019 VRB20G35KT TSRA
BECMG 2102/2104 BKN006
TEMPO 2104/2111 1500 RA OVC002

Related Locations
Nearby:
Farthest:CHT: 12086 mi / 19450 km
Waitangi [Tuuta], Chatham Islands, NZ

Find:

   beyond  
but within

Other Information
Maps:
NOTAMs:
Links:
Sources:

  
flag of France   

Sectional Chart

Flight Planning
at skyvector.com

Satellite Image

Google Maps Satellite View

 

Copyright © 2004-2014 Karl L. Swartz. All rights reserved.
The Great Circle Mapper name and logo are trademarks of the Great Circle Mapper.
All other trademarks mentioned herein belong to their respective owners.
Please see credits for attibutions and further copyright information.

  Follow gcmap on Facebook Follow gcmap on Twitter

hCard Microformat

Geo Microformat